START_TIME,STEP,MOV.,M29,t_acc.,H22,t_acc.,H26,t_acc.,H30,t_acc.
1979-07-28 12:00:31.090 ,0,0,0.,24.0,0.,24.0,0.,24.0,0.,24.0
1979-07-28 12:00:55.090 ,1,1,0.,24.0,0.,24.0,0.,24.0,0.,24.0
1979-07-28 12:01:19.080 ,1,0,0.,24.0,0.,24.0,0.,24.0,0.,24.0
1979-07-28 12:01:43.090 ,2,1,1.,24.0,0.,24.0,0.,24.0,0.,24.0
1979-07-28 12:02:07.080 ,2,0,0.,24.0,0.,24.0,0.,24.0,0.,24.0
1979-07-28 12:02:31.090 ,3,1,0.,24.0,0.,24.0,0.,24.0,0.,24.0
1979-07-28 12:02:55.090 ,3,0,0.,24.0,0.,24.0,0.,24.0,0.,24.0
1979-07-28 12:03:19.090 ,4,1,0.,24.0,0.,24.0,0.,24.0,0.,24.0
1979-07-28 12:03:43.090 ,4,0,0.,24.0,0.,24.0,0.,24.0,0.,24.0
1979-07-28 12:04:07.080 ,5,1,0.,24.0,0.,24.0,0.,24.0,0.,24.0
1979-07-28 12:04:31.080 ,5,0,0.,24.0,0.,24.0,0.,24.0,0.,24.0
1979-07-28 12:04:55.080 ,6,1,0.,24.0,0.,24.0,0.,24.0,0.,24.0
1979-07-28 12:05:19.080 ,6,0,0.,24.0,0.,24.0,0.,24.0,0.,24.0
1979-07-28 12:05:43.080 ,7,1,0.,24.0,0.,24.0,0.,24.0,0.,24.0
1979-07-28 12:06:07.080 ,7,0,0.,24.0,0.,24.0,0.,24.0,0.,24.0
1979-07-28 12:06:31.080 ,0,0,0.,24.0,0.,24.0,0.,24.0,0.,24.0
1979-07-28 12:06:55.080 ,0,0,,0,,0,,0,,0
1979-07-28 12:07:19.080 ,6,1,0.,24.0,0.,24.0,0.,24.0,0.,24.0
1979-07-28 12:07:43.080 ,6,0,0.,24.0,0.,24.0,0.,24.0,0.,24.0
1979-07-28 12:08:07.080 ,5,1,0.,24.0,0.,24.0,0.,24.0,0.,24.0
1979-07-28 12:08:31.080 ,5,0,0.,24.0,0.,24.0,0.,24.0,0.,24.0
1979-07-28 12:08:55.090 ,4,1,0.,24.0,0.,24.0,0.,24.0,0.,24.0
1979-07-28 12:09:19.090 ,4,0,0.,24.0,0.,24.0,0.,24.0,0.,24.0
1979-07-28 12:09:43.090 ,3,1,0.,24.0,0.,24.0,0.,24.0,0.,24.0
1979-07-28 12:10:07.090 ,3,0,0.,24.0,0.,24.0,0.,24.0,0.,24.0
1979-07-28 12:10:31.090 ,2,1,0.,24.0,0.,24.0,0.,24.0,0.,24.0
1979-07-28 12:10:55.090 ,2,0,0.,24.0,0.,24.0,0.,24.0,0.,24.0
1979-07-28 12:11:19.090 ,1,1,0.,24.0,0.,24.0,0.,24.0,0.,24.0
1979-07-28 12:11:43.090 ,1,0,0.,24.0,0.,24.0,0.,24.0,0.,24.0
1979-07-28 12:12:07.090 ,0,1,0.,24.0,0.,24.0,0.,24.0,0.,24.0
1979-07-28 12:12:31.090 ,0,0,0.,24.0,0.,24.0,0.,24.0,0.,24.0
1979-07-28 12:12:55.090 ,0,1,0.,24.0,0.,24.0,0.,24.0,0.,24.0
1979-07-28 12:13:19.090 ,0,0,0.,24.0,0.,24.0,0.,24.0,0.,24.0
1979-07-28 12:13:43.080 ,1,1,0.,24.0,0.,24.0,0.,24.0,0.,24.0
1979-07-28 12:14:07.080 ,1,0,0.,24.0,0.,24.0,0.,24.0,0.,24.0
1979-07-28 12:14:31.080 ,2,1,0.,24.0,0.,24.0,0.,24.0,0.,24.0
1979-07-28 12:14:55.080 ,2,0,0.,24.0,0.,24.0,0.,24.0,0.,24.0
1979-07-28 12:15:19.080 ,3,1,0.,24.0,0.,24.0,0.,24.0,0.,24.0
1979-07-28 12:15:43.080 ,3,0,0.,24.0,0.,24.0,0.,24.0,0.,24.0
1979-07-28 12:16:07.080 ,4,1,0.,24.0,0.,24.0,0.,24.0,0.,24.0
1979-07-28 12:16:31.080 ,4,0,0.,24.0,0.,24.0,0.,24.0,0.,24.0
1979-07-28 12:16:55.080 ,5,1,0.,24.0,0.,24.0,0.,24.0,0.,24.0
1979-07-28 12:17:19.080 ,5,0,0.,24.0,0.,24.0,0.,24.0,0.,24.0
1979-07-28 12:17:43.080 ,6,1,0.,24.0,0.,24.0,0.,24.0,0.,24.0
1979-07-28 12:18:07.080 ,6,0,0.,24.0,0.,24.0,0.,24.0,0.,24.0
1979-07-28 12:18:31.080 ,7,0,0.,24.0,0.,24.0,0.,24.0,0.,24.0
1979-07-28 12:18:55.080 ,7,0,0.,24.0,0.,24.0,0.,24.0,0.,24.0
1979-07-28 12:19:19.080 ,5,1,0.,24.0,0.,24.0,0.,24.0,0.,24.0
1979-07-28 12:19:43.080 ,1,1,0.,24.0,0.,24.0,0.,24.0,0.,24.0
1979-07-28 12:20:07.080 ,2,1,0.,24.0,0.,24.0,0.,24.0,0.,24.0
1979-07-28 12:20:31.080 ,6,1,0.,24.0,0.,24.0,0.,24.0,0.,24.0
1979-07-28 12:20:55.080 ,5,1,0.,24.0,0.,24.0,0.,24.0,0.,24.0
1979-07-28 12:21:19.080 ,1,1,0.,24.0,0.,24.0,0.,24.0,0.,24.0
1979-07-28 12:21:43.080 ,2,1,0.,24.0,0.,24.0,0.,24.0,0.,24.0
1979-07-28 12:22:07.080 ,6,1,0.,24.0,0.,24.0,0.,24.0,0.,24.0
1979-07-28 12:22:31.080 ,5,1,0.,24.0,0.,24.0,0.,24.0,0.,24.0
1979-07-28 12:22:55.080 ,1,1,0.,24.0,0.,24.0,0.,24.0,0.,24.0
1979-07-28 12:23:19.080 ,2,1,0.,24.0,0.,24.0,0.,24.0,0.,24.0
1979-07-28 12:23:43.080 ,6,1,0.,24.0,0.,24.0,0.,24.0,0.,24.0
1979-07-28 12:24:07.080 ,5,1,0.,24.0,0.,24.0,0.,24.0,0.,24.0
1979-07-28 12:24:31.080 ,1,1,0.,24.0,0.,24.0,0.,24.0,0.,24.0
1979-07-28 12:24:55.080 ,2,1,0.,24.0,0.,24.0,0.,24.0,0.,24.0
1979-07-28 12:25:19.080 ,6,1,0.,24.0,0.,24.0,0.,24.0,0.,24.0
1979-07-28 12:25:43.080 ,5,1,0.,24.0,0.,24.0,0.,24.0,0.,24.0
1979-07-28 12:26:07.080 ,1,1,0.,24.0,0.,24.0,0.,24.0,0.,24.0
1979-07-28 12:26:31.080 ,2,1,0.,24.0,0.,24.0,0.,24.0,0.,24.0
1979-07-28 12:26:55.080 ,6,1,0.,24.0,0.,24.0,0.,24.0,0.,24.0
1979-07-28 12:27:19.080 ,5,1,0.,24.0,0.,24.0,0.,24.0,0.,24.0
1979-07-28 12:27:43.080 ,1,1,0.,24.0,0.,24.0,0.,24.0,0.,24.0
1979-07-28 12:28:07.080 ,2,1,0.,24.0,0.,24.0,0.,24.0,0.,24.0
1979-07-28 12:28:31.080 ,6,1,0.,24.0,0.,24.0,0.,24.0,0.,24.0
1979-07-28 12:28:55.080 ,5,1,0.,24.0,0.,24.0,0.,24.0,0.,24.0
1979-07-28 12:29:19.080 ,1,1,0.,24.0,0.,24.0,0.,24.0,0.,24.0
1979-07-28 12:29:43.080 ,0,0,0.,24.0,0.,24.0,0.,24.0,0.,24.0
1979-07-28 12:30:07.080 ,0,0,0.,24.0,0.,24.0,0.,24.0,0.,24.0
1979-07-28 12:30:31.080 ,5,1,0.,24.0,0.,24.0,0.,24.0,0.,24.0
1979-07-28 12:30:55.080 ,5,0,0.,24.0,0.,24.0,0.,24.0,0.,24.0
1979-07-28 12:31:19.080 ,4,1,0.,24.0,0.,24.0,0.,24.0,0.,24.0
1979-07-28 12:31:43.080 ,4,0,0.,24.0,0.,24.0,0.,24.0,0.,24.0
1979-07-28 12:32:07.080 ,3,1,0.,24.0,0.,24.0,0.,24.0,0.,24.0
1979-07-28 12:32:31.080 ,3,0,0.,24.0,0.,24.0,0.,24.0,0.,24.0
1979-07-28 12:32:55.080 ,2,1,0.,24.0,0.,24.0,0.,24.0,0.,24.0
1979-07-28 12:33:19.080 ,2,0,0.,24.0,0.,24.0,0.,24.0,0.,24.0
1979-07-28 12:33:43.080 ,1,1,0.,24.0,0.,24.0,0.,24.0,0.,24.0
1979-07-28 12:34:07.080 ,1,0,0.,24.0,0.,24.0,0.,24.0,0.,24.0
1979-07-28 12:34:31.080 ,0,1,0.,24.0,0.,24.0,0.,24.0,0.,24.0
1979-07-28 12:34:55.080 ,0,0,0.,24.0,0.,24.0,0.,24.0,0.,24.0
1979-07-28 12:35:19.080 ,0,1,0.,24.0,0.,24.0,0.,24.0,0.,24.0
1979-07-28 12:35:43.080 ,0,0,0.,24.0,0.,24.0,0.,24.0,0.,24.0
1979-07-28 12:36:07.080 ,1,1,0.,24.0,0.,24.0,0.,24.0,0.,24.0
1979-07-28 12:36:31.080 ,1,0,0.,24.0,0.,24.0,0.,24.0,0.,24.0
1979-07-28 12:36:55.080 ,2,1,0.,24.0,0.,24.0,0.,24.0,0.,24.0
1979-07-28 12:37:19.080 ,2,0,0.,24.0,0.,24.0,0.,24.0,0.,24.0
1979-07-28 12:37:43.080 ,3,1,0.,24.0,0.,24.0,0.,24.0,0.,24.0
1979-07-28 12:38:07.080 ,3,0,0.,24.0,0.,24.0,0.,24.0,0.,24.0
1979-07-28 12:38:31.080 ,4,1,0.,24.0,0.,24.0,0.,24.0,0.,24.0
1979-07-28 12:38:55.080 ,4,0,0.,24.0,0.,24.0,0.,24.0,0.,24.0
1979-07-28 12:39:19.080 ,5,1,0.,24.0,0.,24.0,0.,24.0,0.,24.0
1979-07-28 12:39:43.080 ,5,0,0.,24.0,0.,24.0,0.,24.0,0.,24.0
1979-07-28 12:40:07.080 ,6,1,0.,24.0,0.,24.0,0.,24.0,0.,24.0
1979-07-28 12:40:31.080 ,6,0,0.,24.0,0.,24.0,0.,24.0,0.,24.0
1979-07-28 12:40:55.080 ,7,1,0.,24.0,0.,24.0,0.,24.0,0.,24.0
1979-07-28 12:41:19.080 ,7,0,0.,24.0,0.,24.0,0.,24.0,0.,24.0
1979-07-28 12:41:43.080 ,7,1,0.,24.0,0.,24.0,0.,24.0,0.,24.0
1979-07-28 12:42:07.080 ,7,0,0.,24.0,0.,24.0,0.,24.0,0.,24.0
1979-07-28 12:42:31.080 ,6,1,0.,24.0,0.,24.0,0.,24.0,0.,24.0
1979-07-28 12:42:55.080 ,6,0,0.,24.0,0.,24.0,0.,24.0,0.,24.0
1979-07-28 12:43:19.080 ,5,1,0.,24.0,0.,24.0,0.,24.0,0.,24.0
1979-07-28 12:43:43.080 ,5,0,0.,24.0,0.,24.0,0.,24.0,0.,24.0
1979-07-28 12:44:07.080 ,4,1,0.,24.0,0.,24.0,0.,24.0,0.,24.0
1979-07-28 12:44:31.080 ,4,0,0.,24.0,0.,24.0,0.,24.0,0.,24.0
1979-07-28 12:44:55.080 ,3,1,0.,24.0,0.,24.0,0.,24.0,0.,24.0
1979-07-28 12:45:19.080 ,3,0,0.,24.0,0.,24.0,0.,24.0,0.,24.0
1979-07-28 12:45:43.080 ,2,1,0.,24.0,0.,24.0,0.,24.0,0.,24.0
1979-07-28 12:46:07.080 ,2,0,0.,24.0,0.,24.0,0.,24.0,0.,24.0
1979-07-28 12:46:31.080 ,1,1,0.,24.0,0.,24.0,0.,24.0,0.,24.0
1979-07-28 12:46:55.080 ,1,0,0.,24.0,0.,24.0,0.,24.0,0.,24.0
1979-07-28 12:47:19.080 ,0,1,0.,24.0,0.,24.0,0.,24.0,0.,24.0
1979-07-28 12:47:43.080 ,0,0,0.,24.0,0.,24.0,0.,24.0,0.,24.0
1979-07-28 12:48:07.080 ,0,1,0.,24.0,0.,24.0,0.,24.0,0.,24.0
1979-07-28 12:48:31.080 ,0,0,0.,24.0,0.,24.0,0.,24.0,0.,24.0
1979-07-28 12:48:55.080 ,1,1,0.,24.0,0.,24.0,0.,24.0,0.,24.0
1979-07-28 12:49:19.080 ,1,0,0.,24.0,0.,24.0,0.,24.0,0.,24.0
1979-07-28 12:49:43.080 ,2,1,0.,24.0,0.,24.0,0.,24.0,0.,24.0
1979-07-28 12:50:07.080 ,2,0,1.,24.0,0.,24.0,0.,24.0,0.,24.0
1979-07-28 12:50:31.080 ,3,1,0.,24.0,0.,24.0,0.,24.0,0.,24.0
1979-07-28 12:50:55.080 ,3,0,0.,24.0,0.,24.0,0.,24.0,0.,24.0
1979-07-28 12:51:19.080 ,4,1,0.,24.0,0.,24.0,0.,24.0,0.,24.0
1979-07-28 12:51:43.080 ,4,0,0.,24.0,0.,24.0,0.,24.0,0.,24.0
1979-07-28 12:52:07.080 ,5,1,0.,24.0,0.,24.0,0.,24.0,0.,24.0
1979-07-28 12:52:31.080 ,5,0,0.,24.0,0.,24.0,0.,24.0,0.,24.0
1979-07-28 12:52:55.080 ,6,1,0.,24.0,0.,24.0,0.,24.0,0.,24.0
1979-07-28 12:53:19.080 ,6,0,0.,24.0,0.,24.0,0.,24.0,0.,24.0
1979-07-28 12:53:43.080 ,7,1,0.,24.0,0.,24.0,0.,24.0,0.,24.0
1979-07-28 12:54:07.080 ,7,0,0.,24.0,0.,24.0,0.,24.0,0.,24.0
1979-07-28 12:54:31.080 ,7,1,0.,24.0,0.,24.0,0.,24.0,0.,24.0
1979-07-28 12:54:55.080 ,7,0,0.,24.0,0.,24.0,0.,24.0,0.,24.0
1979-07-28 12:55:19.080 ,6,1,0.,24.0,0.,24.0,0.,24.0,0.,24.0
1979-07-28 12:55:43.080 ,6,0,0.,24.0,0.,24.0,0.,24.0,0.,24.0
1979-07-28 12:56:07.080 ,5,1,0.,24.0,0.,24.0,0.,24.0,0.,24.0
1979-07-28 12:56:31.080 ,5,0,0.,24.0,0.,24.0,0.,24.0,0.,24.0
1979-07-28 12:56:55.080 ,4,1,0.,24.0,0.,24.0,0.,24.0,0.,24.0
1979-07-28 12:57:19.080 ,4,0,0.,24.0,0.,24.0,0.,24.0,0.,24.0
1979-07-28 12:57:43.080 ,3,1,0.,24.0,0.,24.0,0.,24.0,0.,24.0
1979-07-28 12:58:07.080 ,3,0,0.,24.0,0.,24.0,0.,24.0,0.,24.0
1979-07-28 12:58:31.080 ,2,1,0.,24.0,0.,24.0,0.,24.0,0.,24.0
1979-07-28 12:58:55.080 ,2,0,0.,24.0,0.,24.0,0.,24.0,0.,24.0
1979-07-28 12:59:19.080 ,1,1,0.,24.0,0.,24.0,0.,24.0,0.,24.0
1979-07-28 12:59:43.080 ,1,0,0.,24.0,0.,24.0,0.,24.0,0.,24.0
1979-07-28 13:00:07.080 ,0,1,0.,24.0,0.,24.0,0.,24.0,0.,24.0
1979-07-28 13:00:31.080 ,0,0,0.,24.0,0.,24.0,0.,24.0,0.,24.0
1979-07-28 13:00:55.080 ,0,1,0.,24.0,0.,24.0,0.,24.0,0.,24.0
1979-07-28 13:01:19.080 ,0,0,0.,24.0,0.,24.0,0.,24.0,0.,24.0
1979-07-28 13:01:43.080 ,1,1,0.,24.0,0.,24.0,0.,24.0,0.,24.0
1979-07-28 13:02:07.080 ,1,0,0.,24.0,0.,24.0,0.,24.0,0.,24.0
1979-07-28 13:02:31.080 ,2,1,0.,24.0,0.,24.0,0.,24.0,0.,24.0
1979-07-28 13:02:55.080 ,2,0,0.,24.0,0.,24.0,0.,24.0,0.,24.0
1979-07-28 13:03:19.080 ,3,1,0.,24.0,0.,24.0,0.,24.0,0.,24.0
1979-07-28 13:03:43.080 ,3,0,0.,24.0,0.,24.0,0.,24.0,0.,24.0
1979-07-28 13:04:07.080 ,4,1,0.,24.0,0.,24.0,0.,24.0,0.,24.0
1979-07-28 13:04:31.080 ,4,0,0.,24.0,0.,24.0,0.,24.0,0.,24.0
1979-07-28 13:04:55.080 ,5,1,0.,24.0,0.,24.0,0.,24.0,0.,24.0
1979-07-28 13:05:19.080 ,5,0,0.,24.0,0.,24.0,0.,24.0,0.,24.0
1979-07-28 13:05:43.080 ,6,1,0.,24.0,0.,24.0,0.,24.0,0.,24.0
1979-07-28 13:06:07.080 ,6,0,0.,24.0,0.,24.0,0.,24.0,0.,24.0
1979-07-28 13:06:31.080 ,7,0,0.,24.0,0.,24.0,0.,24.0,0.,24.0
1979-07-28 13:06:55.080 ,7,0,0.,24.0,0.,24.0,0.,24.0,0.,24.0
1979-07-28 13:07:19.080 ,5,1,0.,24.0,0.,24.0,0.,24.0,0.,24.0
1979-07-28 13:07:43.080 ,1,1,0.,24.0,0.,24.0,0.,24.0,0.,24.0
1979-07-28 13:08:07.080 ,2,1,0.,24.0,0.,24.0,0.,24.0,0.,24.0
1979-07-28 13:08:31.080 ,6,1,0.,24.0,0.,24.0,0.,24.0,0.,24.0
1979-07-28 13:08:55.080 ,5,1,0.,24.0,0.,24.0,0.,24.0,0.,24.0
1979-07-28 13:09:19.080 ,1,1,0.,24.0,0.,24.0,0.,24.0,0.,24.0
1979-07-28 13:09:43.080 ,2,1,0.,24.0,0.,24.0,0.,24.0,0.,24.0
1979-07-28 13:10:07.080 ,6,1,0.,24.0,0.,24.0,0.,24.0,0.,24.0
1979-07-28 13:10:31.080 ,5,1,0.,24.0,0.,24.0,0.,24.0,0.,24.0
1979-07-28 13:10:55.080 ,1,1,0.,24.0,0.,24.0,0.,24.0,0.,24.0
1979-07-28 13:11:19.080 ,2,1,0.,24.0,0.,24.0,0.,24.0,0.,24.0
1979-07-28 13:11:43.080 ,6,1,1.,24.0,0.,24.0,0.,24.0,0.,24.0
1979-07-28 13:12:07.080 ,5,1,0.,24.0,0.,24.0,0.,24.0,0.,24.0
1979-07-28 13:12:31.080 ,1,1,0.,24.0,0.,24.0,0.,24.0,0.,24.0
1979-07-28 13:12:55.080 ,2,1,0.,24.0,0.,24.0,0.,24.0,0.,24.0
1979-07-28 13:13:19.080 ,6,1,0.,24.0,0.,24.0,0.,24.0,0.,24.0
1979-07-28 13:13:43.080 ,5,1,0.,24.0,0.,24.0,0.,24.0,0.,24.0
1979-07-28 13:14:07.080 ,1,1,0.,24.0,0.,24.0,0.,24.0,0.,24.0
1979-07-28 13:14:31.080 ,2,1,0.,24.0,0.,24.0,0.,24.0,0.,24.0
1979-07-28 13:14:55.080 ,6,1,0.,24.0,0.,24.0,0.,24.0,0.,24.0
1979-07-28 13:15:19.080 ,5,1,0.,24.0,0.,24.0,0.,24.0,0.,24.0
1979-07-28 13:15:43.080 ,1,1,0.,24.0,0.,24.0,0.,24.0,0.,24.0
1979-07-28 13:16:07.080 ,2,1,0.,24.0,0.,24.0,0.,24.0,0.,24.0
1979-07-28 13:16:31.080 ,6,1,0.,24.0,0.,24.0,0.,24.0,0.,24.0
1979-07-28 13:16:55.080 ,5,1,0.,24.0,0.,24.0,0.,24.0,0.,24.0
1979-07-28 13:17:19.080 ,1,1,0.,24.0,0.,24.0,0.,24.0,0.,24.0
1979-07-28 13:17:43.080 ,0,0,0.,24.0,0.,24.0,0.,24.0,0.,24.0
1979-07-28 13:18:07.080 ,0,0,0.,24.0,0.,24.0,0.,24.0,0.,24.0
1979-07-28 13:18:31.080 ,5,1,0.,24.0,0.,24.0,0.,24.0,0.,24.0
1979-07-28 13:18:55.080 ,5,0,0.,24.0,0.,24.0,0.,24.0,0.,24.0
1979-07-28 13:19:19.080 ,4,1,0.,24.0,0.,24.0,0.,24.0,0.,24.0
1979-07-28 13:19:43.080 ,4,0,0.,24.0,0.,24.0,0.,24.0,0.,24.0
1979-07-28 13:20:07.080 ,3,1,0.,24.0,0.,24.0,0.,24.0,0.,24.0
1979-07-28 13:20:31.080 ,3,0,0.,24.0,0.,24.0,0.,24.0,0.,24.0
1979-07-28 13:20:55.080 ,2,1,0.,24.0,0.,24.0,0.,24.0,0.,24.0
1979-07-28 13:21:19.080 ,2,0,0.,24.0,0.,24.0,0.,24.0,0.,24.0
1979-07-28 13:21:43.080 ,1,1,0.,24.0,0.,24.0,0.,24.0,0.,24.0
1979-07-28 13:22:07.080 ,1,0,0.,24.0,0.,24.0,0.,24.0,0.,24.0
1979-07-28 13:22:31.080 ,0,1,0.,24.0,0.,24.0,0.,24.0,0.,24.0
1979-07-28 13:22:55.080 ,0,0,0.,24.0,0.,24.0,0.,24.0,0.,24.0
1979-07-28 13:23:19.080 ,0,1,0.,24.0,0.,24.0,0.,24.0,0.,24.0
1979-07-28 13:23:43.080 ,0,0,0.,24.0,0.,24.0,0.,24.0,0.,24.0
1979-07-28 13:24:07.080 ,1,1,0.,24.0,0.,24.0,0.,24.0,0.,24.0
1979-07-28 13:24:31.080 ,1,0,0.,24.0,0.,24.0,0.,24.0,0.,24.0
1979-07-28 13:24:55.080 ,2,0,,0,,0,,0,,0
1979-07-28 13:25:19.080 ,2,0,0.,24.0,0.,24.0,0.,24.0,0.,24.0
1979-07-28 13:25:43.080 ,3,1,0.,24.0,0.,24.0,0.,24.0,0.,24.0
1979-07-28 13:26:07.080 ,3,0,0.,24.0,0.,24.0,0.,24.0,0.,24.0
1979-07-28 13:26:31.080 ,4,1,0.,24.0,0.,24.0,0.,24.0,0.,24.0
1979-07-28 13:26:55.080 ,4,0,0.,24.0,0.,24.0,0.,24.0,0.,24.0
1979-07-28 13:27:19.080 ,5,1,0.,24.0,0.,24.0,0.,24.0,0.,24.0
1979-07-28 13:27:43.080 ,5,0,0.,24.0,0.,24.0,0.,24.0,0.,24.0
1979-07-28 13:28:07.080 ,6,1,0.,24.0,0.,24.0,0.,24.0,0.,24.0
1979-07-28 13:28:31.080 ,6,0,0.,24.0,0.,24.0,0.,24.0,0.,24.0
1979-07-28 13:28:55.080 ,7,1,0.,24.0,0.,24.0,0.,24.0,0.,24.0
1979-07-28 13:29:19.080 ,7,0,0.,24.0,0.,24.0,0.,24.0,0.,24.0
1979-07-28 13:29:43.080 ,7,1,0.,24.0,0.,24.0,0.,24.0,0.,24.0
1979-07-28 13:30:07.080 ,7,0,0.,24.0,0.,24.0,0.,24.0,0.,24.0
1979-07-28 13:30:31.080 ,6,1,0.,24.0,0.,24.0,0.,24.0,0.,24.0
1979-07-28 13:30:55.080 ,6,0,0.,24.0,0.,24.0,0.,24.0,0.,24.0
1979-07-28 13:31:19.080 ,5,1,1.,24.0,0.,24.0,0.,24.0,0.,24.0
1979-07-28 13:31:43.080 ,5,0,0.,24.0,0.,24.0,0.,24.0,0.,24.0
1979-07-28 13:32:07.080 ,4,1,0.,24.0,0.,24.0,0.,24.0,0.,24.0
1979-07-28 13:32:31.080 ,4,0,0.,24.0,0.,24.0,0.,24.0,0.,24.0
1979-07-28 13:32:55.080 ,3,1,0.,24.0,0.,24.0,0.,24.0,0.,24.0
1979-07-28 13:33:19.080 ,3,0,0.,24.0,0.,24.0,0.,24.0,0.,24.0
1979-07-28 13:33:43.080 ,2,1,0.,24.0,0.,24.0,0.,24.0,0.,24.0
1979-07-28 13:34:07.080 ,2,0,0.,24.0,0.,24.0,0.,24.0,0.,24.0
1979-07-28 13:34:31.080 ,1,1,0.,24.0,0.,24.0,0.,24.0,0.,24.0
1979-07-28 13:34:55.080 ,1,0,0.,24.0,0.,24.0,0.,24.0,0.,24.0
1979-07-28 13:35:19.080 ,0,1,0.,24.0,0.,24.0,0.,24.0,0.,24.0
1979-07-28 13:35:43.080 ,0,0,1.,24.0,0.,24.0,0.,24.0,0.,24.0
1979-07-28 13:36:07.080 ,0,1,0.,24.0,0.,24.0,0.,24.0,0.,24.0
1979-07-28 13:36:31.080 ,0,0,0.,24.0,0.,24.0,0.,24.0,0.,24.0
1979-07-28 13:36:55.080 ,1,1,0.,24.0,0.,24.0,0.,24.0,0.,24.0
1979-07-28 13:37:19.080 ,1,0,0.,24.0,0.,24.0,0.,24.0,0.,24.0
1979-07-28 13:37:43.080 ,2,1,0.,24.0,0.,24.0,0.,24.0,0.,24.0
1979-07-28 13:38:07.080 ,2,0,0.,24.0,0.,24.0,0.,24.0,0.,24.0
1979-07-28 13:38:31.080 ,3,1,0.,24.0,0.,24.0,0.,24.0,0.,24.0
1979-07-28 13:38:55.080 ,3,0,0.,24.0,0.,24.0,0.,24.0,0.,24.0
1979-07-28 13:39:19.080 ,4,1,0.,24.0,0.,24.0,0.,24.0,0.,24.0
1979-07-28 13:39:43.080 ,4,0,0.,24.0,0.,24.0,0.,24.0,0.,24.0
1979-07-28 13:40:07.080 ,5,1,0.,24.0,0.,24.0,0.,24.0,0.,24.0
1979-07-28 13:40:31.080 ,5,0,0.,24.0,0.,24.0,0.,24.0,0.,24.0
1979-07-28 13:40:55.080 ,6,1,0.,24.0,0.,24.0,0.,24.0,0.,24.0
1979-07-28 13:41:19.080 ,6,0,0.,24.0,0.,24.0,0.,24.0,0.,24.0
1979-07-28 13:41:43.080 ,7,1,0.,24.0,0.,24.0,0.,24.0,0.,24.0
1979-07-28 13:42:07.080 ,7,0,0.,24.0,0.,24.0,0.,24.0,0.,24.0
1979-07-28 13:42:31.080 ,7,1,0.,24.0,0.,24.0,0.,24.0,0.,24.0
1979-07-28 13:42:55.080 ,7,0,0.,24.0,0.,24.0,0.,24.0,0.,24.0
1979-07-28 13:43:19.080 ,6,1,0.,24.0,0.,24.0,0.,24.0,0.,24.0
1979-07-28 13:43:43.080 ,6,0,0.,24.0,0.,24.0,0.,24.0,0.,24.0
1979-07-28 13:44:07.080 ,5,1,0.,24.0,0.,24.0,0.,24.0,0.,24.0
1979-07-28 13:44:31.080 ,5,0,0.,24.0,0.,24.0,0.,24.0,0.,24.0
1979-07-28 13:44:55.080 ,4,1,0.,24.0,0.,24.0,0.,24.0,0.,24.0
1979-07-28 13:45:19.080 ,4,0,0.,24.0,0.,24.0,0.,24.0,0.,24.0
1979-07-28 13:45:43.080 ,3,1,0.,24.0,0.,24.0,0.,24.0,0.,24.0
1979-07-28 13:46:07.080 ,3,0,0.,24.0,0.,24.0,0.,24.0,0.,24.0
1979-07-28 13:46:31.080 ,2,1,0.,24.0,0.,24.0,0.,24.0,0.,24.0
1979-07-28 13:46:55.080 ,2,0,0.,24.0,0.,24.0,0.,24.0,0.,24.0
1979-07-28 13:47:19.080 ,1,1,0.,24.0,0.,24.0,0.,24.0,0.,24.0
1979-07-28 13:47:43.080 ,1,0,0.,24.0,0.,24.0,0.,24.0,0.,24.0
1979-07-28 13:48:07.080 ,0,1,0.,24.0,0.,24.0,0.,24.0,0.,24.0
1979-07-28 13:48:31.080 ,0,0,0.,24.0,0.,24.0,0.,24.0,0.,24.0
1979-07-28 13:48:55.080 ,0,1,0.,24.0,0.,24.0,0.,24.0,0.,24.0
1979-07-28 13:49:19.080 ,0,0,0.,24.0,0.,24.0,0.,24.0,0.,24.0
1979-07-28 13:49:43.080 ,1,1,0.,24.0,0.,24.0,0.,24.0,0.,24.0
1979-07-28 13:50:07.080 ,1,0,0.,24.0,0.,24.0,0.,24.0,0.,24.0
1979-07-28 13:50:31.080 ,2,1,0.,24.0,0.,24.0,0.,24.0,0.,24.0
1979-07-28 13:50:55.080 ,2,0,0.,24.0,0.,24.0,0.,24.0,0.,24.0
1979-07-28 13:51:19.080 ,3,1,0.,24.0,0.,24.0,0.,24.0,0.,24.0
1979-07-28 13:51:43.080 ,3,0,0.,24.0,0.,24.0,0.,24.0,0.,24.0
1979-07-28 13:52:07.080 ,4,1,0.,24.0,0.,24.0,0.,24.0,0.,24.0
1979-07-28 13:52:31.080 ,4,0,0.,24.0,0.,24.0,0.,24.0,0.,24.0
1979-07-28 13:52:55.080 ,5,1,0.,24.0,0.,24.0,0.,24.0,0.,24.0
1979-07-28 13:53:19.080 ,5,0,0.,24.0,0.,24.0,0.,24.0,0.,24.0
1979-07-28 13:53:43.080 ,6,1,0.,24.0,0.,24.0,0.,24.0,0.,24.0
1979-07-28 13:54:07.080 ,6,0,0.,24.0,0.,24.0,0.,24.0,0.,24.0
1979-07-28 13:54:31.080 ,7,0,0.,24.0,0.,24.0,0.,24.0,0.,24.0
1979-07-28 13:54:55.080 ,7,0,0.,24.0,0.,24.0,0.,24.0,0.,24.0
1979-07-28 13:55:19.080 ,5,1,0.,24.0,0.,24.0,0.,24.0,0.,24.0
1979-07-28 13:55:43.080 ,1,1,0.,24.0,0.,24.0,0.,24.0,0.,24.0
1979-07-28 13:56:07.080 ,2,1,0.,24.0,0.,24.0,0.,24.0,0.,24.0
1979-07-28 13:56:31.080 ,6,1,0.,24.0,0.,24.0,0.,24.0,0.,24.0
1979-07-28 13:56:55.080 ,5,1,0.,24.0,0.,24.0,0.,24.0,0.,24.0
1979-07-28 13:57:19.080 ,1,1,0.,24.0,0.,24.0,0.,24.0,0.,24.0
1979-07-28 13:57:43.080 ,2,1,0.,24.0,0.,24.0,0.,24.0,0.,24.0
1979-07-28 13:58:07.080 ,6,1,0.,24.0,0.,24.0,0.,24.0,0.,24.0
1979-07-28 13:58:31.080 ,5,1,0.,24.0,0.,24.0,0.,24.0,0.,24.0
1979-07-28 13:58:55.080 ,1,1,0.,24.0,0.,24.0,0.,24.0,0.,24.0
1979-07-28 13:59:19.080 ,2,1,0.,24.0,0.,24.0,0.,24.0,0.,24.0
1979-07-28 13:59:43.080 ,6,1,0.,24.0,0.,24.0,0.,24.0,0.,24.0
1979-07-28 14:00:07.080 ,5,1,0.,24.0,0.,24.0,0.,24.0,0.,24.0
1979-07-28 14:00:31.080 ,1,1,0.,24.0,0.,24.0,0.,24.0,0.,24.0
1979-07-28 14:00:55.080 ,2,1,0.,24.0,0.,24.0,0.,24.0,0.,24.0
1979-07-28 14:01:19.080 ,6,1,0.,24.0,0.,24.0,0.,24.0,0.,24.0
1979-07-28 14:01:43.080 ,5,1,0.,24.0,0.,24.0,0.,24.0,0.,24.0
1979-07-28 14:02:07.080 ,1,1,0.,24.0,0.,24.0,0.,24.0,0.,24.0
1979-07-28 14:02:31.080 ,2,1,0.,24.0,0.,24.0,0.,24.0,0.,24.0
1979-07-28 14:02:55.080 ,6,1,0.,24.0,0.,24.0,0.,24.0,0.,24.0
1979-07-28 14:03:19.080 ,0,0,,0,,0,,0,,0
1979-07-28 14:03:43.080 ,0,0,,0,,0,,0,,0
1979-07-28 14:05:28.080 ,0,0,1.,24.0,0.,24.0,0.,24.0,0.,24.0
1979-07-28 14:05:43.080 ,0,0,0.,24.0,0.,24.0,0.,24.0,0.,24.0
1979-07-28 14:06:07.080 ,0,0,0.,24.0,0.,24.0,0.,24.0,0.,24.0
1979-07-28 14:06:31.080 ,5,1,0.,24.0,0.,24.0,0.,24.0,0.,24.0
1979-07-28 14:06:55.080 ,5,0,0.,24.0,0.,24.0,0.,24.0,0.,24.0
1979-07-28 14:07:19.080 ,4,1,0.,24.0,0.,24.0,0.,24.0,0.,24.0
1979-07-28 14:07:43.080 ,4,0,0.,24.0,0.,24.0,0.,24.0,0.,24.0
1979-07-28 14:08:07.080 ,3,1,0.,24.0,0.,24.0,0.,24.0,0.,24.0
1979-07-28 14:08:31.080 ,3,0,0.,24.0,0.,24.0,0.,24.0,0.,24.0
1979-07-28 14:08:55.080 ,2,1,0.,24.0,0.,24.0,0.,24.0,0.,24.0
1979-07-28 14:09:19.080 ,2,0,0.,24.0,0.,24.0,0.,24.0,0.,24.0
1979-07-28 14:09:43.080 ,1,1,0.,24.0,0.,24.0,0.,24.0,0.,24.0
1979-07-28 14:10:07.080 ,1,0,0.,24.0,0.,24.0,0.,24.0,0.,24.0
1979-07-28 14:10:31.080 ,0,1,0.,24.0,0.,24.0,0.,24.0,0.,24.0
1979-07-28 14:10:55.080 ,0,0,0.,24.0,0.,24.0,0.,24.0,0.,24.0
1979-07-28 14:11:19.080 ,0,1,0.,24.0,0.,24.0,0.,24.0,0.,24.0
1979-07-28 14:11:43.080 ,0,0,0.,24.0,0.,24.0,0.,24.0,0.,24.0
1979-07-28 14:12:07.080 ,1,1,0.,24.0,0.,24.0,0.,24.0,0.,24.0
1979-07-28 14:12:31.080 ,1,0,0.,24.0,0.,24.0,0.,24.0,0.,24.0
1979-07-28 14:12:55.080 ,2,1,0.,24.0,0.,24.0,0.,24.0,0.,24.0
1979-07-28 14:13:19.080 ,2,0,0.,24.0,0.,24.0,0.,24.0,0.,24.0
1979-07-28 14:13:43.080 ,3,1,0.,24.0,0.,24.0,0.,24.0,0.,24.0
1979-07-28 14:14:07.080 ,3,0,0.,24.0,0.,24.0,0.,24.0,0.,24.0
1979-07-28 14:14:31.080 ,4,1,0.,24.0,0.,24.0,0.,24.0,0.,24.0
1979-07-28 14:14:55.080 ,4,0,0.,24.0,0.,24.0,0.,24.0,0.,24.0
1979-07-28 14:15:19.080 ,5,1,0.,24.0,0.,24.0,0.,24.0,0.,24.0
1979-07-28 14:15:43.080 ,5,0,0.,24.0,0.,24.0,0.,24.0,0.,24.0
1979-07-28 14:16:07.080 ,6,1,0.,24.0,0.,24.0,0.,24.0,0.,24.0
1979-07-28 14:16:31.080 ,6,0,0.,24.0,0.,24.0,0.,24.0,0.,24.0
1979-07-28 14:16:55.080 ,7,1,0.,24.0,0.,24.0,0.,24.0,0.,24.0
1979-07-28 14:17:19.080 ,7,0,0.,24.0,0.,24.0,0.,24.0,0.,24.0
1979-07-28 14:17:43.080 ,7,1,0.,24.0,0.,24.0,0.,24.0,0.,24.0
1979-07-28 14:18:07.080 ,7,0,0.,24.0,0.,24.0,0.,24.0,0.,24.0
1979-07-28 14:18:31.080 ,6,1,0.,24.0,0.,24.0,0.,24.0,0.,24.0
1979-07-28 14:18:55.080 ,6,0,0.,24.0,0.,24.0,0.,24.0,0.,24.0
1979-07-28 14:19:19.080 ,5,1,0.,24.0,0.,24.0,0.,24.0,0.,24.0
1979-07-28 14:19:43.080 ,5,0,0.,24.0,0.,24.0,0.,24.0,0.,24.0
1979-07-28 14:20:07.080 ,4,1,0.,24.0,0.,24.0,0.,24.0,0.,24.0
1979-07-28 14:20:31.080 ,4,0,0.,24.0,0.,24.0,0.,24.0,0.,24.0
1979-07-28 14:20:55.080 ,3,1,0.,24.0,0.,24.0,0.,24.0,0.,24.0
1979-07-28 14:21:19.080 ,3,0,0.,24.0,0.,24.0,0.,24.0,0.,24.0
1979-07-28 14:21:43.080 ,2,1,0.,24.0,0.,24.0,0.,24.0,0.,24.0
1979-07-28 14:22:07.080 ,2,0,0.,24.0,0.,24.0,0.,24.0,0.,24.0
1979-07-28 14:22:31.080 ,1,1,0.,24.0,0.,24.0,0.,24.0,0.,24.0
1979-07-28 14:22:55.080 ,1,0,0.,24.0,0.,24.0,0.,24.0,0.,24.0
1979-07-28 14:23:19.080 ,0,1,0.,24.0,0.,24.0,0.,24.0,1.,24.0
1979-07-28 14:23:43.080 ,0,0,0.,24.0,0.,24.0,0.,24.0,0.,24.0
1979-07-28 14:24:07.080 ,0,1,0.,24.0,0.,24.0,0.,24.0,0.,24.0
1979-07-28 14:24:31.080 ,0,0,0.,24.0,0.,24.0,0.,24.0,0.,24.0
1979-07-28 14:24:55.080 ,1,1,0.,24.0,0.,24.0,0.,24.0,0.,24.0
1979-07-28 14:25:19.080 ,1,0,0.,24.0,0.,24.0,0.,24.0,0.,24.0
1979-07-28 14:25:43.080 ,2,1,0.,24.0,0.,24.0,0.,24.0,0.,24.0
1979-07-28 14:26:07.080 ,2,0,0.,24.0,0.,24.0,0.,24.0,0.,24.0
1979-07-28 14:26:31.080 ,3,1,0.,24.0,0.,24.0,0.,24.0,0.,24.0
1979-07-28 14:26:55.080 ,3,0,0.,24.0,0.,24.0,0.,24.0,0.,24.0
1979-07-28 14:27:19.080 ,4,1,0.,24.0,0.,24.0,0.,24.0,0.,24.0
1979-07-28 14:27:43.080 ,4,0,0.,24.0,0.,24.0,0.,24.0,0.,24.0
1979-07-28 14:28:07.080 ,5,1,0.,24.0,0.,24.0,0.,24.0,0.,24.0
1979-07-28 14:28:31.080 ,5,0,0.,24.0,0.,24.0,0.,24.0,0.,24.0
1979-07-28 14:28:55.080 ,6,1,0.,24.0,0.,24.0,0.,24.0,0.,24.0
1979-07-28 14:29:19.080 ,6,0,0.,24.0,0.,24.0,0.,24.0,0.,24.0
1979-07-28 14:29:43.080 ,7,1,0.,24.0,0.,24.0,0.,24.0,0.,24.0
1979-07-28 14:30:07.080 ,7,0,0.,24.0,0.,24.0,0.,24.0,0.,24.0
1979-07-28 14:30:31.080 ,7,1,0.,24.0,0.,24.0,0.,24.0,0.,24.0
1979-07-28 14:30:55.080 ,7,0,0.,24.0,0.,24.0,0.,24.0,0.,24.0
1979-07-28 14:31:19.080 ,6,1,0.,24.0,0.,24.0,0.,24.0,0.,24.0
1979-07-28 14:31:43.080 ,6,0,0.,24.0,0.,24.0,0.,24.0,0.,24.0
1979-07-28 14:32:07.080 ,5,1,0.,24.0,0.,24.0,0.,24.0,0.,24.0
1979-07-28 14:32:31.080 ,5,0,0.,24.0,0.,24.0,0.,24.0,0.,24.0
1979-07-28 14:32:55.080 ,4,1,0.,24.0,0.,24.0,0.,24.0,0.,24.0
1979-07-28 14:33:19.080 ,4,0,0.,24.0,0.,24.0,0.,24.0,0.,24.0
1979-07-28 14:33:43.080 ,3,1,0.,24.0,0.,24.0,0.,24.0,0.,24.0
1979-07-28 14:34:07.080 ,3,0,0.,24.0,0.,24.0,0.,24.0,0.,24.0
1979-07-28 14:34:31.080 ,2,1,0.,24.0,0.,24.0,0.,24.0,0.,24.0
1979-07-28 14:34:55.080 ,2,0,0.,24.0,0.,24.0,0.,24.0,0.,24.0
1979-07-28 14:35:19.080 ,1,1,0.,24.0,0.,24.0,0.,24.0,0.,24.0
1979-07-28 14:35:43.080 ,1,0,0.,24.0,0.,24.0,0.,24.0,0.,24.0
1979-07-28 14:36:07.080 ,0,1,0.,24.0,0.,24.0,0.,24.0,0.,24.0